Time,TemperatureF,DewpointF,PressureIn,WindDirection,WindDirectionDegrees,WindSpeedMPH,WindSpeedGustMPH,Humidity,HourlyPrecipIn,Conditions,Clouds,dailyrainin,SoftwareType,DateUTC
2013-08-14 00:03:00,64.8,58.5,30.21,SE,135,0.0,0.0,80,0.00,,,0.00,meteobridge,2013-08-14 06:03:00,
2013-08-14 00:09:00,64.9,58.6,30.21,East,90,0.0,0.0,80,0.00,,,0.00,meteobridge,2013-08-14 06:09:00,
2013-08-14 00:16:00,64.8,58.5,30.21,SE,135,0.0,0.0,80,0.00,,,0.00,meteobridge,2013-08-14 06:16:00,
2013-08-14 00:22:00,64.0,57.7,30.21,South,180,0.0,0.0,80,0.00,,,0.00,meteobridge,2013-08-14 06:22:00,
2013-08-14 00:28:00,64.2,58.3,30.20,South,180,0.0,0.0,81,0.00,,,0.00,meteobridge,2013-08-14 06:28:00,
2013-08-14 00:35:00,64.2,58.3,30.20,South,180,0.7,0.7,81,0.00,,,0.00,meteobridge,2013-08-14 06:35:00,
2013-08-14 00:41:00,64.0,58.5,30.20,South,180,0.0,0.0,82,0.00,,,0.00,meteobridge,2013-08-14 06:41:00,
2013-08-14 00:47:00,63.7,58.1,30.20,South,180,0.0,0.0,82,0.00,,,0.00,meteobridge,2013-08-14 06:47:00,
2013-08-14 00:54:00,63.7,58.1,30.19,NE,45,0.0,0.0,82,0.00,,,0.00,meteobridge,2013-08-14 06:54:00,
2013-08-14 01:00:00,63.7,58.1,30.19,North,0,0.0,0.0,82,0.00,,,0.00,meteobridge,2013-08-14 07:00:00,
2013-08-14 01:07:00,63.3,57.4,30.19,North,0,0.0,0.0,81,0.00,,,0.00,meteobridge,2013-08-14 07:07:00,
2013-08-14 01:13:00,62.4,56.8,30.19,North,0,0.0,0.0,82,0.00,,,0.00,meteobridge,2013-08-14 07:13:00,
2013-08-14 01:19:00,62.4,56.5,30.19,East,90,2.2,2.2,81,0.00,,,0.00,meteobridge,2013-08-14 07:19:00,
2013-08-14 01:26:00,62.6,55.9,30.19,North,0,0.0,0.0,79,0.00,,,0.00,meteobridge,2013-08-14 07:26:00,
2013-08-14 01:32:00,63.0,56.3,30.19,East,90,0.0,0.0,79,0.00,,,0.00,meteobridge,2013-08-14 07:32:00,
2013-08-14 01:38:00,63.0,56.3,30.19,SE,135,0.0,0.0,79,0.00,,,0.00,meteobridge,2013-08-14 07:38:00,
2013-08-14 01:45:00,62.4,55.8,30.19,East,90,0.0,0.0,79,0.00,,,0.00,meteobridge,2013-08-14 07:45:00,
2013-08-14 01:51:00,61.9,55.2,30.18,SE,135,0.0,0.0,79,0.00,,,0.00,meteobridge,2013-08-14 07:51:00,
2013-08-14 01:57:00,61.5,54.9,30.18,East,90,2.2,2.2,79,0.00,,,0.00,meteobridge,2013-08-14 07:57:00,
2013-08-14 02:04:00,61.3,54.9,30.18,NE,45,0.0,0.0,79,0.00,,,0.00,meteobridge,2013-08-14 08:04:00,
2013-08-14 02:10:00,60.8,54.7,30.18,North,0,1.6,1.6,80,0.00,,,0.00,meteobridge,2013-08-14 08:10:00,
2013-08-14 02:16:00,61.0,54.5,30.18,East,90,0.7,0.7,79,0.00,,,0.00,meteobridge,2013-08-14 08:16:00,
2013-08-14 02:23:00,61.0,54.5,30.18,NE,45,0.0,0.7,79,0.00,,,0.00,meteobridge,2013-08-14 08:23:00,
2013-08-14 02:29:00,60.6,54.5,30.17,NE,45,0.0,1.6,80,0.00,,,0.00,meteobridge,2013-08-14 08:29:00,
2013-08-14 02:35:00,60.6,54.5,30.17,East,90,0.0,0.7,80,0.00,,,0.00,meteobridge,2013-08-14 08:35:00,
2013-08-14 02:42:00,60.6,54.5,30.17,East,90,0.0,0.7,80,0.00,,,0.00,meteobridge,2013-08-14 08:42:00,
2013-08-14 02:48:00,60.6,54.5,30.17,NE,45,0.0,0.0,80,0.00,,,0.00,meteobridge,2013-08-14 08:48:00,
2013-08-14 02:54:00,60.8,54.7,30.17,East,90,0.0,1.6,80,0.00,,,0.00,meteobridge,2013-08-14 08:54:00,
2013-08-14 03:01:00,60.6,54.5,30.17,East,90,0.0,0.0,80,0.00,,,0.00,meteobridge,2013-08-14 09:01:00,
2013-08-14 03:07:00,60.4,54.3,30.17,North,0,1.6,3.1,80,0.00,,,0.00,meteobridge,2013-08-14 09:07:00,
2013-08-14 03:13:00,60.1,54.0,30.17,NE,45,0.0,0.7,80,0.00,,,0.00,meteobridge,2013-08-14 09:13:00,
2013-08-14 03:20:00,60.1,54.0,30.17,NE,45,0.0,0.0,80,0.00,,,0.00,meteobridge,2013-08-14 09:20:00,
2013-08-14 03:26:00,60.6,54.1,30.17,East,90,1.6,1.6,79,0.00,,,0.00,meteobridge,2013-08-14 09:26:00,
2013-08-14 03:32:00,60.4,54.0,30.17,NE,45,2.2,2.2,79,0.00,,,0.00,meteobridge,2013-08-14 09:32:00,
2013-08-14 03:39:00,60.3,53.8,30.17,NE,45,1.6,1.6,79,0.00,,,0.00,meteobridge,2013-08-14 09:39:00,
2013-08-14 03:58:00,60.1,54.0,30.17,East,90,0.7,0.7,80,0.00,,,0.00,meteobridge,2013-08-14 09:58:00,
2013-08-14 04:04:00,60.1,54.0,30.17,NE,45,0.0,0.0,80,0.00,,,0.00,meteobridge,2013-08-14 10:04:00,
2013-08-14 04:10:00,60.1,54.0,30.17,East,90,0.0,1.6,80,0.00,,,0.00,meteobridge,2013-08-14 10:10:00,
2013-08-14 04:17:00,60.1,53.6,30.17,East,90,0.0,0.7,79,0.00,,,0.00,meteobridge,2013-08-14 10:17:00,
2013-08-14 04:23:00,59.9,53.8,30.17,NE,45,0.0,0.7,80,0.00,,,0.00,meteobridge,2013-08-14 10:23:00,
2013-08-14 04:30:00,59.5,53.4,30.17,NE,45,2.2,2.2,80,0.00,,,0.00,meteobridge,2013-08-14 10:30:00,
2013-08-14 04:36:00,59.2,53.1,30.17,East,90,0.0,0.0,80,0.00,,,0.00,meteobridge,2013-08-14 10:36:00,
2013-08-14 04:44:00,59.5,53.8,30.17,North,0,0.0,0.0,81,0.00,,,0.00,meteobridge,2013-08-14 10:44:00,
2013-08-14 04:53:00,59.9,54.3,30.17,North,0,0.0,0.0,82,0.00,,,0.00,meteobridge,2013-08-14 10:53:00,
2013-08-14 04:59:00,59.7,54.1,30.18,SE,135,1.6,1.6,82,0.00,,,0.00,meteobridge,2013-08-14 10:59:00,
2013-08-14 05:05:00,59.5,54.0,30.18,East,90,0.0,0.0,82,0.00,,,0.00,meteobridge,2013-08-14 11:05:00,
2013-08-14 05:12:00,60.8,55.2,30.18,SE,135,3.1,5.4,82,0.00,,,0.00,meteobridge,2013-08-14 11:12:00,
2013-08-14 05:18:00,61.2,54.9,30.18,SE,135,5.4,5.4,80,0.00,,,0.00,meteobridge,2013-08-14 11:18:00,
2013-08-14 05:24:00,61.2,54.7,30.18,SE,135,3.1,3.1,79,0.00,,,0.00,meteobridge,2013-08-14 11:24:00,
2013-08-14 05:31:00,61.0,54.1,30.18,East,90,0.0,0.0,78,0.00,,,0.00,meteobridge,2013-08-14 11:31:00,
2013-08-14 05:37:00,60.3,53.4,30.18,SE,135,0.0,0.7,78,0.00,,,0.00,meteobridge,2013-08-14 11:37:00,
2013-08-14 05:44:00,59.7,52.9,30.18,East,90,0.7,0.7,78,0.00,,,0.00,meteobridge,2013-08-14 11:44:00,
2013-08-14 05:50:00,59.5,53.1,30.18,North,0,0.0,0.0,79,0.00,,,0.00,meteobridge,2013-08-14 11:50:00,
2013-08-14 05:56:00,59.7,53.2,30.19,SE,135,0.0,1.6,79,0.00,,,0.00,meteobridge,2013-08-14 11:56:00,
2013-08-14 06:03:00,59.4,52.9,30.19,East,90,0.7,1.6,79,0.00,,,0.00,meteobridge,2013-08-14 12:03:00,
2013-08-14 06:09:00,59.5,53.1,30.19,East,90,0.0,1.6,79,0.00,,,0.00,meteobridge,2013-08-14 12:09:00,
2013-08-14 06:15:00,59.9,53.4,30.18,NE,45,0.0,1.6,79,0.00,,,0.00,meteobridge,2013-08-14 12:15:00,
2013-08-14 06:22:00,60.6,54.1,30.19,NE,45,0.0,0.7,79,0.00,,,0.00,meteobridge,2013-08-14 12:22:00,
2013-08-14 06:28:00,61.5,54.3,30.19,East,90,0.7,0.7,77,0.00,,,0.00,meteobridge,2013-08-14 12:28:00,
2013-08-14 06:34:00,62.1,54.3,30.19,South,180,0.0,1.6,76,0.00,,,0.00,meteobridge,2013-08-14 12:34:00,
2013-08-14 06:41:00,62.8,54.3,30.19,East,90,0.0,0.7,74,0.00,,,0.00,meteobridge,2013-08-14 12:41:00,
2013-08-14 06:47:00,63.1,54.3,30.19,SE,135,0.0,2.2,73,0.00,,,0.00,meteobridge,2013-08-14 12:47:00,
2013-08-14 06:53:00,63.7,54.9,30.20,East,90,0.7,0.7,73,0.00,,,0.00,meteobridge,2013-08-14 12:53:00,
2013-08-14 07:00:00,64.8,55.9,30.21,East,90,1.6,1.6,73,0.00,,,0.00,meteobridge,2013-08-14 13:00:00,
2013-08-14 07:06:00,68.9,58.3,30.20,East,90,0.0,0.0,69,0.00,,,0.00,meteobridge,2013-08-14 13:06:00,
2013-08-14 07:12:00,72.3,59.0,30.20,East,90,0.0,0.0,63,0.00,,,0.00,meteobridge,2013-08-14 13:12:00,
2013-08-14 07:19:00,71.6,57.9,30.21,West,270,0.0,0.7,62,0.00,,,0.00,meteobridge,2013-08-14 13:19:00,
2013-08-14 07:25:00,71.4,58.1,30.21,South,180,0.0,0.0,63,0.00,,,0.00,meteobridge,2013-08-14 13:25:00,
2013-08-14 07:31:00,75.6,60.3,30.21,SE,135,0.0,0.0,59,0.00,,,0.00,meteobridge,2013-08-14 13:31:00,
2013-08-14 07:38:00,73.4,58.3,30.21,West,270,3.1,3.1,59,0.00,,,0.00,meteobridge,2013-08-14 13:38:00,
2013-08-14 07:44:00,72.5,58.3,30.21,South,180,0.0,0.0,61,0.00,,,0.00,meteobridge,2013-08-14 13:44:00,
2013-08-14 07:50:00,78.4,61.5,30.22,SE,135,0.7,0.7,56,0.00,,,0.00,meteobridge,2013-08-14 13:50:00,
2013-08-14 07:57:00,74.3,58.1,30.21,South,180,6.0,6.0,57,0.00,,,0.00,meteobridge,2013-08-14 13:57:00,
2013-08-14 08:03:00,72.3,58.1,30.22,SE,135,6.0,6.0,61,0.00,,,0.00,meteobridge,2013-08-14 14:03:00,
2013-08-14 08:09:00,73.0,59.2,30.22,South,180,3.1,3.1,62,0.00,,,0.00,meteobridge,2013-08-14 14:09:00,
2013-08-14 08:16:00,72.0,57.7,30.22,SW,225,3.8,6.9,61,0.00,,,0.00,meteobridge,2013-08-14 14:16:00,
2013-08-14 08:22:00,74.8,61.0,30.21,SE,135,3.1,3.1,62,0.00,,,0.00,meteobridge,2013-08-14 14:22:00,
2013-08-14 08:28:00,73.4,58.6,30.22,East,90,3.1,6.0,60,0.00,,,0.00,meteobridge,2013-08-14 14:28:00,
2013-08-14 08:35:00,73.9,59.2,30.22,South,180,5.4,6.0,60,0.00,,,0.00,meteobridge,2013-08-14 14:35:00,
2013-08-14 08:41:00,74.1,59.4,30.22,South,180,5.4,6.0,60,0.00,,,0.00,meteobridge,2013-08-14 14:41:00,
2013-08-14 08:50:00,75.7,59.9,30.22,SE,135,1.6,6.0,58,0.00,,,0.00,meteobridge,2013-08-14 14:50:00,
2013-08-14 08:56:00,75.4,59.5,30.22,SE,135,2.2,4.5,58,0.00,,,0.00,meteobridge,2013-08-14 14:56:00,
2013-08-14 09:02:00,77.4,61.0,30.22,East,90,3.8,3.8,57,0.00,,,0.00,meteobridge,2013-08-14 15:02:00,
2013-08-14 09:09:00,75.6,59.2,30.22,NE,45,3.8,3.8,57,0.00,,,0.00,meteobridge,2013-08-14 15:09:00,
2013-08-14 09:15:00,77.0,60.6,30.22,South,180,2.2,2.2,57,0.00,,,0.00,meteobridge,2013-08-14 15:15:00,
2013-08-14 09:21:00,76.1,59.7,30.22,NE,45,4.5,4.5,57,0.00,,,0.00,meteobridge,2013-08-14 15:21:00,
2013-08-14 09:28:00,76.1,59.2,30.21,SE,135,0.7,3.1,56,0.00,,,0.00,meteobridge,2013-08-14 15:28:00,
2013-08-14 09:34:00,77.9,59.9,30.21,SE,135,4.5,4.5,54,0.00,,,0.00,meteobridge,2013-08-14 15:34:00,
2013-08-14 09:40:00,77.2,59.2,30.21,South,180,7.6,7.6,54,0.00,,,0.00,meteobridge,2013-08-14 15:40:00,
2013-08-14 09:47:00,77.7,60.3,30.21,South,180,5.4,7.6,55,0.00,,,0.00,meteobridge,2013-08-14 15:47:00,
2013-08-14 09:55:00,77.7,59.7,30.21,SE,135,7.6,11.4,54,0.00,,,0.00,meteobridge,2013-08-14 15:55:00,
2013-08-14 10:02:00,77.9,59.9,30.21,SE,135,3.8,7.6,54,0.00,,,0.00,meteobridge,2013-08-14 16:02:00,
2013-08-14 10:08:00,77.9,59.4,30.21,SW,225,6.9,7.6,53,0.00,,,0.00,meteobridge,2013-08-14 16:08:00,
2013-08-14 10:14:00,76.6,59.2,30.21,East,90,5.4,7.6,55,0.00,,,0.00,meteobridge,2013-08-14 16:14:00,
2013-08-14 10:21:00,79.5,60.4,30.21,South,180,6.0,6.0,52,0.00,,,0.00,meteobridge,2013-08-14 16:21:00,
2013-08-14 10:27:00,79.2,60.1,30.21,West,270,3.8,3.8,52,0.00,,,0.00,meteobridge,2013-08-14 16:27:00,
2013-08-14 10:33:00,79.7,60.4,30.21,South,180,8.3,8.3,52,0.00,,,0.00,meteobridge,2013-08-14 16:33:00,
2013-08-14 10:40:00,78.6,60.1,30.21,South,180,5.4,6.0,53,0.00,,,0.00,meteobridge,2013-08-14 16:40:00,
2013-08-14 10:46:00,78.8,60.3,30.21,SE,135,5.4,5.4,53,0.00,,,0.00,meteobridge,2013-08-14 16:46:00,
2013-08-14 10:52:00,78.4,60.4,30.21,SE,135,5.4,6.9,54,0.00,,,0.00,meteobridge,2013-08-14 16:52:00,
2013-08-14 10:59:00,80.8,61.0,30.21,South,180,6.0,6.0,51,0.00,,,0.00,meteobridge,2013-08-14 16:59:00,
2013-08-14 11:05:00,79.2,60.1,30.21,SW,225,10.7,10.7,52,0.00,,,0.00,meteobridge,2013-08-14 17:05:00,
2013-08-14 11:11:00,80.1,60.3,30.21,SW,225,3.1,6.0,51,0.00,,,0.00,meteobridge,2013-08-14 17:11:00,
2013-08-14 11:18:00,81.5,59.4,30.21,SE,135,5.4,6.9,47,0.00,,,0.00,meteobridge,2013-08-14 17:18:00,
2013-08-14 11:24:00,83.1,61.3,30.21,South,180,7.6,7.6,48,0.00,,,0.00,meteobridge,2013-08-14 17:24:00,
2013-08-14 11:30:00,81.0,59.4,30.20,South,180,6.0,6.0,48,0.00,,,0.00,meteobridge,2013-08-14 17:30:00,
2013-08-14 11:37:00,79.5,58.6,30.20,North,0,6.0,7.6,49,0.00,,,0.00,meteobridge,2013-08-14 17:37:00,
2013-08-14 11:43:00,78.4,61.0,30.20,SE,135,3.8,8.3,55,0.00,,,0.00,meteobridge,2013-08-14 17:43:00,
2013-08-14 11:49:00,77.4,59.9,30.20,West,270,4.5,7.6,55,0.00,,,0.00,meteobridge,2013-08-14 17:49:00,
2013-08-14 11:56:00,77.4,59.4,30.20,West,270,4.5,5.4,54,0.00,,,0.00,meteobridge,2013-08-14 17:56:00,
2013-08-14 12:04:00,78.6,60.1,30.19,SW,225,6.0,6.0,53,0.00,,,0.00,meteobridge,2013-08-14 18:04:00,
2013-08-14 12:11:00,77.7,59.7,30.19,South,180,2.2,4.5,54,0.00,,,0.00,meteobridge,2013-08-14 18:11:00,
2013-08-14 12:17:00,77.5,59.5,30.19,West,270,5.4,5.4,54,0.00,,,0.00,meteobridge,2013-08-14 18:17:00,
2013-08-14 12:23:00,76.3,59.9,30.19,North,0,5.4,7.6,57,0.00,,,0.00,meteobridge,2013-08-14 18:23:00,
2013-08-14 12:30:00,77.5,60.6,30.19,West,270,3.8,3.8,56,0.00,,,0.00,meteobridge,2013-08-14 18:30:00,
2013-08-14 12:36:00,78.6,61.5,30.18,West,270,7.6,7.6,56,0.00,,,0.00,meteobridge,2013-08-14 18:36:00,
2013-08-14 12:42:00,77.9,61.5,30.18,NW,315,5.4,6.0,57,0.00,,,0.00,meteobridge,2013-08-14 18:42:00,
2013-08-14 12:49:00,76.5,59.5,30.18,SW,225,3.1,5.4,56,0.00,,,0.00,meteobridge,2013-08-14 18:49:00,
2013-08-14 12:55:00,76.8,59.9,30.18,South,180,6.0,6.0,56,0.00,,,0.00,meteobridge,2013-08-14 18:55:00,
2013-08-14 13:01:00,75.6,60.3,30.17,SE,135,5.4,8.3,59,0.00,,,0.00,meteobridge,2013-08-14 19:01:00,
2013-08-14 13:08:00,78.6,63.1,30.17,North,0,2.2,3.8,59,0.00,,,0.00,meteobridge,2013-08-14 19:08:00,
2013-08-14 13:14:00,81.7,63.9,30.16,North,0,3.1,3.1,55,0.00,,,0.00,meteobridge,2013-08-14 19:14:00,
2013-08-14 13:20:00,78.1,61.2,30.17,North,0,2.2,6.0,56,0.00,,,0.00,meteobridge,2013-08-14 19:20:00,
2013-08-14 13:27:00,79.7,62.1,30.17,West,270,5.4,5.4,55,0.00,,,0.00,meteobridge,2013-08-14 19:27:00,
2013-08-14 13:33:00,78.3,61.3,30.17,North,0,3.1,5.4,56,0.00,,,0.00,meteobridge,2013-08-14 19:33:00,
2013-08-14 13:39:00,78.4,61.5,30.16,North,0,1.6,3.8,56,0.00,,,0.00,meteobridge,2013-08-14 19:39:00,
2013-08-14 13:46:00,78.1,61.2,30.16,North,0,0.7,3.8,56,0.00,,,0.00,meteobridge,2013-08-14 19:46:00,
2013-08-14 13:52:00,77.9,61.5,30.16,SW,225,1.6,3.1,57,0.00,,,0.00,meteobridge,2013-08-14 19:52:00,
2013-08-14 13:58:00,77.4,59.9,30.16,North,0,3.8,6.9,55,0.00,,,0.00,meteobridge,2013-08-14 19:58:00,
2013-08-14 14:05:00,76.8,60.4,30.16,NW,315,4.5,4.5,57,0.00,,,0.00,meteobridge,2013-08-14 20:05:00,
2013-08-14 14:11:00,75.0,60.6,30.16,NW,315,2.2,3.8,61,0.00,,,0.00,meteobridge,2013-08-14 20:11:00,
2013-08-14 14:17:00,75.2,61.7,30.16,NW,315,3.8,3.8,63,0.00,,,0.00,meteobridge,2013-08-14 20:17:00,
2013-08-14 14:24:00,70.7,60.4,30.16,East,90,0.0,6.9,70,0.11,,,0.11,meteobridge,2013-08-14 20:24:00,
2013-08-14 14:30:00,70.0,61.0,30.16,SE,135,0.7,1.6,73,0.15,,,0.15,meteobridge,2013-08-14 20:30:00,
2013-08-14 14:36:00,70.5,61.9,30.16,South,180,0.0,0.0,74,0.19,,,0.19,meteobridge,2013-08-14 20:36:00,
2013-08-14 14:43:00,70.3,62.1,30.15,SE,135,3.1,3.1,75,0.21,,,0.21,meteobridge,2013-08-14 20:43:00,
2013-08-14 14:49:00,69.6,61.7,30.15,South,180,0.7,1.6,76,0.22,,,0.22,meteobridge,2013-08-14 20:49:00,
2013-08-14 14:55:00,70.5,62.6,30.15,North,0,0.0,0.0,76,0.24,,,0.24,meteobridge,2013-08-14 20:55:00,
2013-08-14 15:02:00,71.2,63.3,30.15,East,90,0.0,0.0,76,0.25,,,0.25,meteobridge,2013-08-14 21:02:00,
2013-08-14 15:08:00,71.4,62.8,30.15,South,180,0.0,0.0,74,0.25,,,0.25,meteobridge,2013-08-14 21:08:00,
2013-08-14 15:14:00,70.9,61.9,30.15,South,180,2.2,3.1,73,0.25,,,0.25,meteobridge,2013-08-14 21:14:00,
2013-08-14 15:21:00,68.9,60.6,30.15,South,180,0.7,2.2,75,0.19,,,0.25,meteobridge,2013-08-14 21:21:00,
2013-08-14 15:27:00,70.5,61.9,30.14,North,0,0.0,0.0,74,0.12,,,0.25,meteobridge,2013-08-14 21:27:00,
2013-08-14 15:33:00,71.2,62.6,30.15,South,180,0.0,0.0,74,0.07,,,0.25,meteobridge,2013-08-14 21:33:00,
2013-08-14 15:40:00,72.0,62.4,30.14,South,180,0.0,0.0,72,0.05,,,0.25,meteobridge,2013-08-14 21:40:00,
2013-08-14 15:46:00,71.6,61.7,30.14,South,180,0.0,0.0,71,0.02,,,0.25,meteobridge,2013-08-14 21:46:00,
2013-08-14 15:55:00,70.3,61.3,30.14,South,180,4.5,4.5,73,0.01,,,0.25,meteobridge,2013-08-14 21:55:00,
2013-08-14 16:01:00,69.4,61.5,30.14,East,90,2.2,2.2,76,0.00,,,0.25,meteobridge,2013-08-14 22:01:00,
2013-08-14 16:07:00,69.8,61.5,30.15,South,180,0.0,0.0,75,0.00,,,0.25,meteobridge,2013-08-14 22:07:00,
2013-08-14 16:14:00,68.9,61.3,30.15,West,270,2.2,2.2,77,0.00,,,0.25,meteobridge,2013-08-14 22:14:00,
2013-08-14 16:20:00,68.7,61.9,30.15,West,270,3.1,3.1,79,0.00,,,0.25,meteobridge,2013-08-14 22:20:00,
2013-08-14 16:26:00,68.4,61.5,30.15,West,270,1.6,3.1,79,0.00,,,0.25,meteobridge,2013-08-14 22:26:00,
2013-08-14 16:33:00,68.5,61.7,30.16,South,180,0.0,0.0,79,0.00,,,0.25,meteobridge,2013-08-14 22:33:00,
2013-08-14 16:39:00,68.2,61.7,30.16,South,180,0.0,1.6,80,0.00,,,0.25,meteobridge,2013-08-14 22:39:00,
2013-08-14 16:45:00,68.0,61.5,30.16,SW,225,1.6,1.6,80,0.00,,,0.25,meteobridge,2013-08-14 22:45:00,
2013-08-14 16:52:00,67.8,61.7,30.16,South,180,2.2,2.2,81,0.00,,,0.25,meteobridge,2013-08-14 22:52:00,
2013-08-14 16:58:00,67.6,61.5,30.16,South,180,0.0,0.0,81,0.00,,,0.25,meteobridge,2013-08-14 22:58:00,
2013-08-14 17:05:00,67.6,61.9,30.16,West,270,1.6,1.6,82,0.00,,,0.25,meteobridge,2013-08-14 23:05:00,
2013-08-14 17:11:00,67.5,61.3,30.16,West,270,1.6,1.6,81,0.00,,,0.25,meteobridge,2013-08-14 23:11:00,
2013-08-14 17:17:00,67.3,61.0,30.17,South,180,0.7,3.1,80,0.00,,,0.25,meteobridge,2013-08-14 23:17:00,
2013-08-14 17:23:00,67.5,61.3,30.17,East,90,0.0,0.0,81,0.00,,,0.25,meteobridge,2013-08-14 23:23:00,
2013-08-14 17:30:00,67.5,61.2,30.17,West,270,0.0,2.2,80,0.00,,,0.25,meteobridge,2013-08-14 23:30:00,
2013-08-14 17:36:00,67.1,61.2,30.17,NW,315,4.5,4.5,81,0.00,,,0.25,meteobridge,2013-08-14 23:36:00,
2013-08-14 17:42:00,67.1,61.3,30.18,NW,315,3.8,4.5,82,0.00,,,0.25,meteobridge,2013-08-14 23:42:00,
2013-08-14 17:49:00,66.9,61.2,30.18,NW,315,0.7,1.6,82,0.00,,,0.25,meteobridge,2013-08-14 23:49:00,
2013-08-14 17:55:00,67.1,61.3,30.18,West,270,2.2,3.1,82,0.00,,,0.25,meteobridge,2013-08-14 23:55:00,
2013-08-14 18:02:00,67.3,61.2,30.18,North,0,2.2,3.1,81,0.00,,,0.25,meteobridge,2013-08-15 00:02:00,
2013-08-14 18:08:00,67.3,61.2,30.18,West,270,3.1,3.8,81,0.00,,,0.25,meteobridge,2013-08-15 00:08:00,
2013-08-14 18:14:00,67.5,61.3,30.18,North,0,0.0,0.0,81,0.00,,,0.25,meteobridge,2013-08-15 00:14:00,
2013-08-14 18:21:00,67.5,61.3,30.18,West,270,0.0,0.0,81,0.00,,,0.25,meteobridge,2013-08-15 00:21:00,
2013-08-14 18:27:00,67.3,61.0,30.19,South,180,0.0,0.0,80,0.00,,,0.25,meteobridge,2013-08-15 00:27:00,
2013-08-14 18:33:00,67.5,61.2,30.18,South,180,0.0,0.0,80,0.00,,,0.25,meteobridge,2013-08-15 00:33:00,
2013-08-14 18:40:00,66.9,61.0,30.19,South,180,1.6,2.2,81,0.00,,,0.25,meteobridge,2013-08-15 00:40:00,
2013-08-14 18:46:00,66.9,61.0,30.19,South,180,0.0,0.0,81,0.00,,,0.25,meteobridge,2013-08-15 00:46:00,
2013-08-14 18:52:00,66.9,61.0,30.19,South,180,0.0,0.0,81,0.00,,,0.25,meteobridge,2013-08-15 00:52:00,
2013-08-14 18:59:00,66.7,60.4,30.20,South,180,0.0,0.0,80,0.00,,,0.25,meteobridge,2013-08-15 00:59:00,
2013-08-14 19:05:00,66.7,60.8,30.20,South,180,0.0,0.0,81,0.00,,,0.25,meteobridge,2013-08-15 01:05:00,
2013-08-14 19:11:00,66.6,60.6,30.20,South,180,0.0,0.0,81,0.00,,,0.25,meteobridge,2013-08-15 01:11:00,
2013-08-14 19:18:00,66.7,61.0,30.21,South,180,0.0,0.0,82,0.00,,,0.25,meteobridge,2013-08-15 01:18:00,
2013-08-14 19:24:00,66.7,61.0,30.20,West,270,0.0,0.7,82,0.00,,,0.25,meteobridge,2013-08-15 01:24:00,
2013-08-14 19:30:00,66.7,61.0,30.20,West,270,0.0,0.0,82,0.00,,,0.25,meteobridge,2013-08-15 01:30:00,
2013-08-14 19:37:00,66.6,61.0,30.20,SE,135,0.0,0.0,82,0.00,,,0.25,meteobridge,2013-08-15 01:37:00,
2013-08-14 19:43:00,66.4,60.4,30.21,SE,135,1.6,1.6,81,0.00,,,0.25,meteobridge,2013-08-15 01:43:00,
2013-08-14 19:49:00,66.2,60.3,30.21,South,180,1.6,3.8,81,0.00,,,0.25,meteobridge,2013-08-15 01:49:00,
2013-08-14 19:56:00,66.2,60.3,30.21,South,180,3.1,4.5,81,0.00,,,0.25,meteobridge,2013-08-15 01:56:00,
2013-08-14 20:02:00,66.0,60.4,30.21,South,180,2.2,2.2,82,0.00,,,0.25,meteobridge,2013-08-15 02:02:00,
2013-08-14 20:08:00,65.8,60.3,30.22,South,180,0.0,0.0,82,0.00,,,0.25,meteobridge,2013-08-15 02:08:00,
2013-08-14 20:15:00,65.5,59.9,30.22,South,180,0.0,0.0,82,0.00,,,0.25,meteobridge,2013-08-15 02:15:00,
2013-08-14 20:21:00,65.5,59.9,30.22,South,180,0.0,0.0,82,0.00,,,0.25,meteobridge,2013-08-15 02:21:00,
2013-08-14 20:27:00,65.3,59.7,30.22,South,180,2.2,3.8,82,0.00,,,0.25,meteobridge,2013-08-15 02:27:00,
2013-08-14 20:34:00,65.3,59.7,30.22,SE,135,4.5,4.5,82,0.00,,,0.25,meteobridge,2013-08-15 02:34:00,
2013-08-14 20:40:00,65.7,59.7,30.22,East,90,2.2,2.2,81,0.00,,,0.25,meteobridge,2013-08-15 02:40:00,
2013-08-14 20:46:00,65.7,59.7,30.22,East,90,0.0,0.7,81,0.00,,,0.25,meteobridge,2013-08-15 02:46:00,
2013-08-14 20:53:00,65.8,59.9,30.22,North,0,0.0,0.0,81,0.00,,,0.25,meteobridge,2013-08-15 02:53:00,
2013-08-14 20:59:00,66.0,60.1,30.22,North,0,0.0,0.0,81,0.00,,,0.25,meteobridge,2013-08-15 02:59:00,
2013-08-14 21:05:00,66.0,60.1,30.22,North,0,0.0,0.0,81,0.00,,,0.25,meteobridge,2013-08-15 03:05:00,
2013-08-14 21:12:00,65.7,59.7,30.22,West,270,0.0,0.0,81,0.00,,,0.25,meteobridge,2013-08-15 03:12:00,
2013-08-14 21:18:00,65.7,59.7,30.23,North,0,0.0,0.0,81,0.00,,,0.25,meteobridge,2013-08-15 03:18:00,
2013-08-14 21:25:00,65.8,60.3,30.23,North,0,0.0,0.0,82,0.00,,,0.25,meteobridge,2013-08-15 03:25:00,
2013-08-14 21:31:00,66.0,60.4,30.23,East,90,0.0,0.0,82,0.00,,,0.25,meteobridge,2013-08-15 03:31:00,
2013-08-14 21:37:00,65.8,60.3,30.23,NE,45,0.0,0.0,82,0.00,,,0.25,meteobridge,2013-08-15 03:37:00,
2013-08-14 21:44:00,65.3,59.4,30.23,SE,135,0.0,0.0,81,0.00,,,0.25,meteobridge,2013-08-15 03:44:00,
2013-08-14 21:50:00,65.1,59.2,30.23,East,90,0.0,0.0,81,0.00,,,0.25,meteobridge,2013-08-15 03:50:00,
2013-08-14 21:56:00,64.9,58.6,30.23,East,90,0.0,0.0,80,0.00,,,0.25,meteobridge,2013-08-15 03:56:00,
2013-08-14 22:03:00,64.9,58.6,30.23,East,90,0.0,0.0,80,0.00,,,0.25,meteobridge,2013-08-15 04:03:00,
2013-08-14 22:05:00,65.1,58.8,30.23,North,0,0.0,0.0,80,0.00,,,0.25,meteobridge,2013-08-15 04:05:00,
2013-08-14 22:13:00,64.9,58.6,30.23,NE,45,0.0,1.6,80,0.00,,,0.25,meteobridge,2013-08-15 04:13:00,
2013-08-14 22:15:00,64.9,58.6,30.22,NE,45,0.0,0.0,80,0.00,,,0.25,meteobridge,2013-08-15 04:15:00,
2013-08-14 22:20:00,64.9,58.6,30.23,NE,45,0.0,0.0,80,0.00,,,0.25,meteobridge,2013-08-15 04:20:00,
2013-08-14 22:22:00,64.9,58.3,30.23,North,0,0.0,0.0,79,0.00,,,0.25,meteobridge,2013-08-15 04:22:00,
2013-08-14 22:28:00,65.1,58.5,30.23,North,0,0.0,0.0,79,0.00,,,0.25,meteobridge,2013-08-15 04:28:00,
2013-08-14 22:34:00,64.4,57.7,30.23,SE,135,0.0,0.7,79,0.00,,,0.25,meteobridge,2013-08-15 04:34:00,
2013-08-14 22:41:00,64.6,57.9,30.23,NE,45,0.0,0.0,79,0.00,,,0.25,meteobridge,2013-08-15 04:41:00,
2013-08-14 22:47:00,64.9,58.3,30.23,North,0,0.0,0.0,79,0.00,,,0.25,meteobridge,2013-08-15 04:47:00,
2013-08-14 22:53:00,64.6,57.9,30.22,SE,135,0.0,0.0,79,0.00,,,0.25,meteobridge,2013-08-15 04:53:00,
2013-08-14 23:00:00,64.4,57.7,30.23,East,90,0.0,0.0,79,0.00,,,0.25,meteobridge,2013-08-15 05:00:00,
2013-08-14 23:06:00,64.4,57.4,30.22,East,90,0.0,0.0,78,0.00,,,0.25,meteobridge,2013-08-15 05:06:00,
2013-08-14 23:12:00,64.4,57.4,30.22,NE,45,0.0,0.0,78,0.00,,,0.25,meteobridge,2013-08-15 05:12:00,
2013-08-14 23:19:00,64.6,57.6,30.22,NE,45,0.0,0.0,78,0.00,,,0.25,meteobridge,2013-08-15 05:19:00,
2013-08-14 23:25:00,64.4,57.4,30.22,North,0,0.0,0.0,78,0.00,,,0.25,meteobridge,2013-08-15 05:25:00,
2013-08-14 23:31:00,64.0,57.0,30.21,East,90,0.0,0.0,78,0.00,,,0.25,meteobridge,2013-08-15 05:31:00,
2013-08-14 23:38:00,63.7,56.7,30.22,North,0,0.0,0.0,78,0.00,,,0.25,meteobridge,2013-08-15 05:38:00,
2013-08-14 23:44:00,63.5,56.8,30.21,East,90,0.0,0.0,79,0.00,,,0.25,meteobridge,2013-08-15 05:44:00,
2013-08-14 23:50:00,63.0,56.7,30.21,East,90,0.0,0.0,80,0.00,,,0.25,meteobridge,2013-08-15 05:50:00,
2013-08-14 23:57:00,63.3,57.4,30.22,East,90,0.0,0.0,81,0.00,,,0.25,meteobridge,2013-08-15 05:57:00,